University AP, Davis, CA, CA

12:02 AM PST on December 16, 2019 (GMT -0800)
University AP, Davis, CA

Weather History for KEDU - October, 2019

Change the Weather History Date:

Thursday, October 24, 2019

  Actual Average (KSMF) Record (KSMF)
Temperature  
Mean Temperature 72 °F -  
Max Temperature 86 °F 75 °F 89 °F (1965)
Min Temperature 57 °F 49 °F 38 °F (1949)
Cooling Degree Days 6    
Growing Degree Days 22 (Base 50)    
Moisture  
Dew Point 24 °F    
Average Humidity 17    
Maximum Humidity 38    
Minimum Humidity 9    
Precipitation  
Precipitation 0.00 in - - ()
Sea Level Pressure  
Sea Level Pressure 30.04 in    
Wind  
Wind Speed 11 mph ()    
Max Wind Speed 17 mph    
Max Gust Speed 24 mph    
Visibility 10.0 miles    
Events      
Averages and records for this station are not official NWS values.
T = Trace of Precipitation, MM = Missing Value Source: Averaged Metar Reports

Daily Weather History Graph

Daily Weather History Graph

Search for Another Location

Airport or City:

Astronomy

Oct. 24, 2019 Rise Set
Actual Time 7:25 AM PDT 6:16 PM PDT
Civil Twilight 6:58 AM PDT 6:43 PM PDT
Nautical Twilight 6:27 AM PDT 7:14 PM PDT
Astronomical Twilight 5:56 AM PDT 7:45 PM PDT
Moon 3:05 AM PDT (10/24) 4:43 PM PDT (10/24)
Length of Visible Light 11h 45m
Length of Day
10h 51m
Waning Crescent, 16% of the Moon is Illuminated
Oct 24
Waning Crescent
Oct 27
New
Nov 4
First Quarter
Nov 12
Full
Nov 19
Last Quarter

Hourly Weather History & Observations

Time (PDT) Temp. Dew Point Humidity Pressure Visibility Wind Dir Wind Speed Gust Speed Precip Events Conditions
12:15 AM 71.6 °F 23.0 °F 16% 29.97 in 10.0 mi North 11.5 mph 19.6 mph N/A   Clear
12:30 AM 71.6 °F 23.0 °F 16% 29.97 in 10.0 mi North 12.7 mph 21.9 mph N/A   Clear
12:50 AM 71.6 °F 23.0 °F 16% 29.97 in 10.0 mi North 17.3 mph 21.9 mph N/A   Clear
1:10 AM 71.6 °F 23.0 °F 16% 29.98 in 10.0 mi NNW 12.7 mph 18.4 mph N/A   Clear
1:30 AM 71.6 °F 23.0 °F 16% 29.98 in 10.0 mi North 11.5 mph - N/A   Clear
1:50 AM 71.6 °F 23.0 °F 16% 29.98 in 10.0 mi NNW 12.7 mph 19.6 mph N/A   Clear
2:10 AM 71.6 °F 21.2 °F 15% 29.99 in 10.0 mi NNW 11.5 mph 19.6 mph N/A   Clear
2:30 AM 71.6 °F 21.2 °F 15% 29.99 in 10.0 mi NNW 13.8 mph 19.6 mph N/A   Clear
2:50 AM 71.6 °F 21.2 °F 15% 29.99 in 10.0 mi NNW 12.7 mph 17.3 mph N/A   Clear
3:10 AM 71.6 °F 23.0 °F 16% 29.98 in 10.0 mi North 13.8 mph 20.7 mph N/A   Clear
3:30 AM 71.6 °F 23.0 °F 16% 29.99 in 10.0 mi NNW 12.7 mph 19.6 mph N/A   Clear
3:50 AM 69.8 °F 23.0 °F 17% 29.99 in 10.0 mi NNW 10.4 mph 20.7 mph N/A   Clear
4:10 AM 69.8 °F 23.0 °F 17% 29.99 in 10.0 mi NNW 11.5 mph - N/A   Clear
4:35 AM 68.0 °F 23.0 °F 18% 30.00 in 10.0 mi NNW 12.7 mph 17.3 mph N/A   Clear
4:50 AM 69.8 °F 23.0 °F 17% 30.00 in 10.0 mi NNW 13.8 mph 18.4 mph N/A   Clear
5:10 AM 68.0 °F 23.0 °F 18% 30.00 in 10.0 mi NNW 10.4 mph 20.7 mph N/A   Clear
5:30 AM 68.0 °F 23.0 °F 18% 30.01 in 10.0 mi NNW 13.8 mph 19.6 mph N/A   Clear
6:10 AM 68.0 °F 23.0 °F 18% 30.02 in 10.0 mi NNW 13.8 mph 20.7 mph N/A   Clear
6:30 AM 68.0 °F 21.2 °F 17% 30.03 in 10.0 mi NNW 12.7 mph 19.6 mph N/A   Clear
6:55 AM 68.0 °F 21.2 °F 17% 30.03 in 10.0 mi NNW 12.7 mph 19.6 mph N/A   Clear
7:10 AM 68.0 °F 21.2 °F 17% 30.03 in 10.0 mi North 12.7 mph 19.6 mph N/A   Clear
7:30 AM 68.0 °F 21.2 °F 17% 30.03 in 10.0 mi NNW 12.7 mph 20.7 mph N/A   Clear
7:50 AM 68.0 °F 21.2 °F 17% 30.04 in 10.0 mi NNW 12.7 mph - N/A   Clear
8:10 AM 69.8 °F 19.4 °F 15% 30.05 in 10.0 mi NNW 13.8 mph 21.9 mph N/A   Clear
8:30 AM 69.8 °F 21.2 °F 16% 30.06 in 10.0 mi North 15.0 mph 20.7 mph N/A   Clear
8:50 AM 71.6 °F 21.2 °F 15% 30.07 in 10.0 mi NNW 17.3 mph 23.0 mph N/A   Clear
9:10 AM 71.6 °F 23.0 °F 16% 30.08 in 10.0 mi North 13.8 mph - N/A   Clear
9:30 AM 73.4 °F 23.0 °F 15% 30.09 in 10.0 mi North 15.0 mph 20.7 mph N/A   Clear
9:50 AM 75.2 °F 23.0 °F 14% 30.09 in 10.0 mi NNW 12.7 mph 20.7 mph N/A   Clear
10:10 AM 75.2 °F 23.0 °F 14% 30.09 in 10.0 mi North 16.1 mph 23.0 mph N/A   Clear
10:30 AM 77.0 °F 23.0 °F 13% 30.09 in 10.0 mi North 12.7 mph 24.2 mph N/A   Clear
10:50 AM 77.0 °F 23.0 °F 13% 30.09 in 10.0 mi North 15.0 mph 19.6 mph N/A   Clear
11:10 AM 80.6 °F 23.0 °F 12% 30.09 in 10.0 mi North 12.7 mph 18.4 mph N/A   Clear
11:30 AM 80.6 °F 23.0 °F 12% 30.09 in 10.0 mi NNW 15.0 mph 20.7 mph N/A   Clear
11:50 AM 82.4 °F 23.0 °F 11% 30.09 in 10.0 mi NNW 16.1 mph 21.9 mph N/A   Clear
12:10 PM 82.4 °F 21.2 °F 10% 30.08 in 10.0 mi North 16.1 mph 21.9 mph N/A   Clear
12:30 PM 82.4 °F 19.4 °F 10% 30.08 in 10.0 mi North 16.1 mph 21.9 mph N/A   Clear
12:50 PM 84.2 °F 19.4 °F 9% 30.07 in 10.0 mi North 16.1 mph 20.7 mph N/A   Clear
1:10 PM 84.2 °F 19.4 °F 9% 30.07 in 10.0 mi North 12.7 mph - N/A   Clear
1:30 PM 84.2 °F 19.4 °F 9% 30.06 in 10.0 mi North 13.8 mph 19.6 mph N/A   Clear
1:50 PM 86.0 °F 21.2 °F 9% 30.05 in 10.0 mi NNW 13.8 mph 19.6 mph N/A   Clear
2:10 PM 86.0 °F 21.2 °F 9% 30.05 in 10.0 mi NNE 15.0 mph 18.4 mph N/A   Clear
2:30 PM 86.0 °F 19.4 °F 9% 30.04 in 10.0 mi North 12.7 mph 18.4 mph N/A   Clear
2:55 PM 86.0 °F 19.4 °F 9% 30.04 in 10.0 mi North 12.7 mph 19.6 mph N/A   Clear
3:30 PM 86.0 °F 21.2 °F 9% 30.04 in 10.0 mi North 12.7 mph 17.3 mph N/A   Clear
3:50 PM 86.0 °F 23.0 °F 10% 30.04 in 10.0 mi NNW 11.5 mph - N/A   Clear
4:10 PM 86.0 °F 23.0 °F 10% 30.04 in 10.0 mi North 12.7 mph 17.3 mph N/A   Clear
4:55 PM 84.2 °F 23.0 °F 11% 30.04 in 10.0 mi NNW 11.5 mph - N/A   Clear
5:15 PM 82.4 °F 24.8 °F 12% 30.04 in 10.0 mi North 8.1 mph - N/A   Clear
5:30 PM 82.4 °F 24.8 °F 12% 30.04 in 10.0 mi North 8.1 mph - N/A   Clear
5:50 PM 80.6 °F 24.8 °F 13% 30.03 in 10.0 mi North 6.9 mph - N/A   Clear
6:10 PM 80.6 °F 24.8 °F 13% 30.03 in 10.0 mi North 5.8 mph - N/A   Clear
6:35 PM 77.0 °F 26.6 °F 16% 30.04 in 10.0 mi North 4.6 mph - N/A   Clear
6:50 PM 77.0 °F 26.6 °F 16% 30.04 in 10.0 mi NNW 4.6 mph - N/A   Clear
7:10 PM 75.2 °F 26.6 °F 17% 30.04 in 10.0 mi NNW 3.5 mph - N/A   Clear
7:35 PM 75.2 °F 26.6 °F 17% 30.05 in 10.0 mi NNW 3.5 mph - N/A   Clear
7:50 PM 73.4 °F 26.6 °F 18% 30.05 in 10.0 mi North 3.5 mph - N/A   Clear
8:30 PM 68.0 °F 26.6 °F 21% 30.05 in 10.0 mi Calm Calm - N/A   Clear
8:50 PM 66.2 °F 30.2 °F 26% 30.06 in 10.0 mi Calm Calm - N/A   Clear
9:15 PM 66.2 °F 30.2 °F 26% 30.06 in 10.0 mi Calm Calm - N/A   Clear
9:30 PM 64.4 °F 28.4 °F 26% 30.06 in 10.0 mi Calm Calm - N/A   Clear
9:55 PM 62.6 °F 30.2 °F 30% 30.07 in 10.0 mi Calm Calm - N/A   Clear
10:10 PM 62.6 °F 30.2 °F 30% 30.07 in 10.0 mi Calm Calm - N/A   Clear
10:35 PM 62.6 °F 28.4 °F 27% 30.08 in 10.0 mi Calm Calm - N/A   Clear
10:50 PM 60.8 °F 32.0 °F 34% 30.08 in 10.0 mi Calm Calm - N/A   Clear
11:15 PM 57.2 °F 32.0 °F 38% 30.09 in 10.0 mi Calm Calm - N/A   Clear
11:30 PM 59.0 °F 32.0 °F 36% 30.09 in 10.0 mi Calm Calm - N/A   Clear
11:55 PM 57.2 °F 30.2 °F 36% 30.09 in 10.0 mi Calm Calm - N/A   Clear